TimeAST,TemperatureF,Dew PointF,Humidity,Sea Level PressureIn,VisibilityMPH,Wind Direction,Wind SpeedMPH,Gust SpeedMPH,PrecipitationIn,Events,Conditions,WindDirDegrees,DateUTC
12:00 AM,82.4,51.8,35,29.95,-9999.0,NW,9.2,-,N/A,,Clear,320,2012-10-30 21:00:00
12:30 AM,80.6,51.8,37,29.95,-9999.0,NNW,9.2,-,N/A,,Clear,330,2012-10-30 21:30:00
1:00 AM,80.6,53.6,39,29.95,-9999.0,NW,8.1,-,N/A,,Clear,320,2012-10-30 22:00:00
1:30 AM,80.6,53.6,39,29.95,-9999.0,NW,6.9,-,N/A,,Clear,320,2012-10-30 22:30:00
2:00 AM,80.6,51.8,37,29.95,-9999.0,NW,8.1,-,N/A,,Clear,320,2012-10-30 23:00:00
2:30 AM,80.6,51.8,37,29.95,-9999.0,NNW,9.2,-,N/A,,Clear,330,2012-10-30 23:30:00
3:00 AM,80,51,26,29.94,7,NNW,9.2,,,,,330,2012-10-31 00:00:00
3:00 AM,80.6,51.8,37,29.92,-9999.0,NNW,9.2,-,N/A,,Clear,330,2012-10-31 00:00:00
3:30 AM,80.6,50.0,34,29.95,-9999.0,NNW,8.1,-,N/A,,Clear,330,2012-10-31 00:30:00
4:00 AM,80.6,51.8,37,29.95,-9999.0,NNW,5.8,-,N/A,,Clear,330,2012-10-31 01:00:00
4:30 AM,78.8,53.6,42,29.95,-9999.0,NW,4.6,-,N/A,,Clear,320,2012-10-31 01:30:00
5:00 AM,80.6,51.8,37,29.95,-9999.0,NW,8.1,-,N/A,,Clear,320,2012-10-31 02:00:00
5:30 AM,78.8,50.0,36,29.95,-9999.0,NNW,8.1,-,N/A,,Clear,330,2012-10-31 02:30:00
6:00 AM,80.6,51.8,37,29.95,-9999.0,NW,5.8,-,N/A,,Clear,320,2012-10-31 03:00:00
6:30 AM,80.6,53.6,39,29.98,-9999.0,WNW,4.6,-,N/A,,Clear,300,2012-10-31 03:30:00
7:00 AM,80.6,51.8,37,29.98,-9999.0,NW,5.8,-,N/A,,Clear,310,2012-10-31 04:00:00
9:00 AM,85,54,25,30.02,9,NNW,12.7,,,,,340,2012-10-31 06:00:00
9:00 AM,84.2,55.4,37,30.01,-9999.0,NNW,12.7,-,N/A,,Clear,340,2012-10-31 06:00:00
9:30 AM,86.0,55.4,35,30.01,-9999.0,North,11.5,-,N/A,,Clear,350,2012-10-31 06:30:00
10:00 AM,86.0,55.4,35,30.01,-9999.0,NNW,10.4,-,N/A,,Clear,330,2012-10-31 07:00:00
10:30 AM,86.0,57.2,37,29.98,-9999.0,North,11.5,-,N/A,,Clear,360,2012-10-31 07:30:00
11:00 AM,87.8,57.2,35,29.98,-9999.0,North,11.5,-,N/A,,Clear,10,2012-10-31 08:00:00
11:30 AM,87.8,57.2,35,29.95,-9999.0,North,11.5,-,N/A,,Clear,360,2012-10-31 08:30:00
12:00 PM,89.6,57.2,33,29.95,-9999.0,North,11.5,-,N/A,,Clear,350,2012-10-31 09:00:00
12:30 PM,89.6,57.2,33,29.92,-9999.0,NNW,13.8,-,N/A,,Clear,330,2012-10-31 09:30:00
1:00 PM,89.6,57.2,33,29.92,-9999.0,WNW,10.4,-,N/A,,Clear,300,2012-10-31 10:00:00
1:30 PM,89.6,55.4,31,29.92,-9999.0,NW,12.7,-,N/A,,Clear,320,2012-10-31 10:30:00
2:00 PM,89.6,55.4,31,29.92,-9999.0,NNW,13.8,-,N/A,,Clear,330,2012-10-31 11:00:00
2:30 PM,89.6,55.4,31,29.92,-9999.0,NNW,15.0,-,N/A,,Clear,330,2012-10-31 11:30:00
3:00 PM,88,56,24,29.93,9,NNW,12.7,,,,,330,2012-10-31 12:00:00
3:00 PM,87.8,55.4,33,29.92,-9999.0,NNW,12.7,-,N/A,,Clear,330,2012-10-31 12:00:00
3:30 PM,87.8,55.4,33,29.92,-9999.0,NNW,13.8,-,N/A,,Clear,330,2012-10-31 12:30:00
4:00 PM,86.0,57.2,37,29.92,-9999.0,NW,12.7,-,N/A,,Clear,320,2012-10-31 13:00:00
4:30 PM,86.0,51.8,31,29.95,-9999.0,NNW,12.7,-,N/A,,Clear,330,2012-10-31 13:30:00
5:00 PM,86.0,51.8,31,29.95,-9999.0,NNW,11.5,-,N/A,,Clear,330,2012-10-31 14:00:00
5:30 PM,84.2,51.8,33,29.95,-9999.0,NNW,11.5,-,N/A,,Clear,330,2012-10-31 14:30:00
6:00 PM,84.2,50.0,30,29.95,-9999.0,NNW,11.5,-,N/A,,Clear,330,2012-10-31 15:00:00
6:30 PM,84.2,50.0,30,29.98,-9999.0,NNW,9.2,-,N/A,,Clear,330,2012-10-31 15:30:00
7:00 PM,82.4,57.2,42,29.98,-9999.0,NNW,9.2,-,N/A,,Clear,330,2012-10-31 16:00:00
7:30 PM,82.4,59.0,45,29.98,-9999.0,NNW,10.4,-,N/A,,Clear,330,2012-10-31 16:30:00
8:00 PM,82.4,57.2,42,29.98,-9999.0,NNW,6.9,-,N/A,,Clear,330,2012-10-31 17:00:00
8:30 PM,82.4,57.2,42,29.98,-9999.0,NNW,8.1,-,N/A,,Clear,330,2012-10-31 17:30:00
9:00 PM,82,58,33,30.00,10,NW,6.9,,,,,320,2012-10-31 18:00:00
9:00 PM,82.4,57.2,42,29.98,-9999.0,NW,6.9,-,N/A,,Clear,320,2012-10-31 18:00:00
9:30 PM,80.6,57.2,45,29.98,-9999.0,NNW,8.1,-,N/A,,Clear,330,2012-10-31 18:30:00
10:00 PM,80.6,57.2,45,29.98,-9999.0,NNW,10.4,-,N/A,,Clear,330,2012-10-31 19:00:00
10:30 PM,80.6,55.4,42,29.98,-9999.0,NNW,8.1,-,N/A,,Clear,330,2012-10-31 19:30:00
11:00 PM,80.6,55.4,42,29.98,-9999.0,NNW,8.1,-,N/A,,Clear,330,2012-10-31 20:00:00
11:30 PM,80.6,55.4,42,29.98,-9999.0,NNW,8.1,-,N/A,,Clear,330,2012-10-31 20:30:00